Regional Weather Roundup
Issued by NWS

Home | Current Version | Previous Version | Graphics & Text | Print | Product List | Glossary On
Versions: 1 2 3 4 5 6 7 8 9 10 11 12 13 14 15 16 17 18 19 20 21 22 23 24 25 26 27 28 29 30 31 32 33 34 35 36 37 38 39 40 41 42 43 44 45 46 47 48 49 50
000
ASUS43 KDTX 170610
RWRMI
MICHIGAN HOURLY REGIONAL WEATHER ROUNDUP
NATIONAL WEATHER SERVICE DETROIT/PONTIAC MI
100 AM EST SUN DEC 17 2017

NOTE: "FAIR" INDICATES FEW OR NO CLOUDS BELOW 12,000 FEET WITH NO
SIGNIFICANT WEATHER AND/OR OBSTRUCTION TO VISIBILITY.

MIZ047>049-052>055-059>063-066>070-074>076-081>083-170700-
SOUTHEAST LOWER MICHIGAN

CITY           SKY/WX    TMP DP  RH WIND       PRES   REMARKS
ADRIAN         CLOUDY    25  22  88 E7        30.16S WCI  17
6HR MIN TEMP:  24; 6HR MAX TEMP:  28;

ALMA           CLOUDY    22  20  93 NE6       30.21R WCI  14
6HR MIN TEMP:  16; 6HR MAX TEMP:  25;

ANN ARBOR      CLOUDY    22  18  85 NE6       30.16R WCI  14
BAD AXE        CLOUDY    23  19  85 CALM      30.21R
6HR MIN TEMP:  22; 6HR MAX TEMP:  23;

CARO           CLOUDY    24  20  85 CALM      30.20R
DETROIT CITY   CLOUDY    22  17  81 N3        30.19S
6HR MIN TEMP:  21; 6HR MAX TEMP:  27;

DETROIT        CLOUDY    25  17  72 NE7       30.18R WCI  17
6HR MIN TEMP:  25; 6HR MAX TEMP:  31;

FLINT          CLOUDY    18  14  84 E6        30.18S WCI  10
6HR MIN TEMP:  17; 6HR MAX TEMP:  25;

GROSSE ILE     CLEAR     24  20  87 NE12      30.16F WCI  13
6HR MIN TEMP:  24; 6HR MAX TEMP:  28;

HILLSDALE      CLOUDY    27  23  86 SE8       30.11S FOG     WCI  18
HOWELL         PTCLDY    20  19  97 E3        30.16R
6HR MIN TEMP:  18; 6HR MAX TEMP:  26;


CITY           SKY/WX    TMP DP  RH WIND       PRES   REMARKS
JACKSON        CLOUDY    25  21  85 NE6       30.13S FOG     WCI  18
6HR MIN TEMP:  24; 6HR MAX TEMP:  32;

LAMBERTVILLE   CLOUDY    27  24  87 CALM      30.16R
6HR MIN TEMP:  26; 6HR MAX TEMP:  28;

LANSING        CLOUDY    19  18  95 E3        30.18R
6HR MIN TEMP:  15; 6HR MAX TEMP:  25;

LAPEER         CLOUDY    23  17  79 CALM      30.19R
6HR MIN TEMP:  23; 6HR MAX TEMP:  25;

MASON          CLOUDY    19  15  86 NE3       30.16S
6HR MIN TEMP:  17; 6HR MAX TEMP:  26;

MONROE         CLOUDY    23  20  87 NE5       30.16S WCI  17
6HR MIN TEMP:  23; 6HR MAX TEMP:  27;

MT. CLEMENS    CLOUDY    22  16  77 NE8       30.18R WCI  13
6HR MIN TEMP:  20; 6HR MAX TEMP:  25;

PONTIAC        CLOUDY    18  13  80 E5        30.16R WCI  11
6HR MIN TEMP:  18; 6HR MAX TEMP:  25;

PORT HOPE        N/A     25  19  78 NE10      30.20S WCI  15
6HR MIN TEMP:  24; 6HR MAX TEMP:  26;

PORT HURON     CLOUDY    21  12  68 CALM      30.21R
TRI CITIES     CLOUDY    23  20  88 NE6       30.22R WCI  16
6HR MIN TEMP:  23; 6HR MAX TEMP:  24; 6HR PCP: TRACE;

MIDLAND        CLOUDY    22  17  83 CALM      30.22R
6HR MIN TEMP:  21; 6HR MAX TEMP:  25;

TROY           CLOUDY    23  16  74 NE7       30.20S WCI  15
SAGINAW HB     CLOUDY    23  21  93 NE5       30.22R WCI  17
$$
MIZ043>046-050>051-056>058-064>065-071>073-077>080-170700-
SOUTHWEST LOWER MICHIGAN

CITY           SKY/WX    TMP DP  RH WIND       PRES   REMARKS
BATTLE CREEK   CLOUDY    26  22  84 E6        30.12S WCI  19
6HR MIN TEMP:  25; 6HR MAX TEMP:  30;

BENTON HARBOR  PTCLDY    29  23  78 E7        30.09F WCI  22
6HR MIN TEMP:  28; 6HR MAX TEMP:  34;

BIG RAPIDS     CLOUDY    22  19  88 E6        30.17S WCI  14
6HR MIN TEMP:  22; 6HR MAX TEMP:  23;

COLDWATER      CLOUDY    26  24  91 SE7       30.12F WCI  18
6HR MIN TEMP:  24; 6HR MAX TEMP:  31;

HOLLAND        CLEAR     24  18  77 E9        30.14S WCI  14
6HR MIN TEMP:  23; 6HR MAX TEMP:  25;

GRAND RAPIDS   PTCLDY    22  19  89 E12       30.15R WCI  10
6HR MIN TEMP:  21; 6HR MAX TEMP:  24;

IONIA          FAIR      21  19  94 E7        30.16R WCI  12
6HR MIN TEMP:  21; 6HR MAX TEMP:  25;

KALAMAZOO      CLOUDY    26  23  88 CALM      30.12S FOG
6HR MIN TEMP:  26; 6HR MAX TEMP:  32;

LUDINGTON      CLOUDY    25  20  83 E7        30.17S WCI  17
6HR MIN TEMP:  25; 6HR MAX TEMP:  25;

MARSHALL       CLOUDY    24  22  91 E3        30.11F
6HR MIN TEMP:  23; 6HR MAX TEMP:  29;

MOUNT PLEASANT CLOUDY    22  17  81 NE6       30.20R WCI  15
6HR MIN TEMP:  22; 6HR MAX TEMP:  25;

MUSKEGON       PTCLDY    24  18  77 E9        30.15F WCI  14
6HR MIN TEMP:  23; 6HR MAX TEMP:  27;

SOUTH HAVEN    CLOUDY    28  23  82 E6        30.11S WCI  21
$$
MIZ016>042-170700-
NORTHERN LOWER MICHIGAN

CITY           SKY/WX    TMP DP  RH WIND       PRES   REMARKS
ALPENA         CLOUDY    15  12  88 N3        30.25S
6HR MIN TEMP:   9; 6HR MAX TEMP:  15;

BEAVER ISLAND  CLOUDY    17  13  83 E8        30.24F WCI   7
6HR MIN TEMP:  15; 6HR MAX TEMP:  17;

BELLAIRE       CLOUDY    16  12  86 NE3       30.24S
6HR MIN TEMP:  15; 6HR MAX TEMP:  17;

CADILLAC       CLOUDY    19  17  93 E8        30.16R WCI   8
CHARLEVOIX     CLOUDY    15  12  85 E8        30.27R WCI   5
6HR MIN TEMP:  13; 6HR MAX TEMP:  15;

FRANKFORT      CLOUDY    23  16  75 SE3       30.20R
GAYLORD        CLOUDY    10   6  84 CALM      30.18S
6HR MIN TEMP:   9; 6HR MAX TEMP:  11; 6HR PCP: TRACE;

GRAYLING       CLOUDY    13   8  83 E3        30.20S
6HR MIN TEMP:  13; 6HR MAX TEMP:  15;

HARBOR SPRINGS CLOUDY    10   6  84 NE7       30.24S WCI   0
HOUGHTON LAKE  CLOUDY    15  11  83 NE6       30.20R WCI   6
6HR MIN TEMP:  15; 6HR MAX TEMP:  19;

MANISTEE       CLOUDY    25  20  81 E9        30.19R WCI  15
OSCODA         CLOUDY    17  11  80 NW6       30.23S WCI   8
6HR MIN TEMP:  15; 6HR MAX TEMP:  17;

PELLSTON       CLOUDY     6   4  91 CALM      30.26S
6HR MIN TEMP:   1; 6HR MAX TEMP:  11;

ROGERS CITY    CLOUDY    14  10  85 CALM      30.27S
TRAVERSE CITY  CLOUDY    19  12  74 E7        30.22R WCI  10
6HR MIN TEMP:  19; 6HR MAX TEMP:  21;

$$
MIZ007>008-015-170700-
EASTERN UPPER MICHIGAN

CITY           SKY/WX    TMP DP  RH WIND       PRES   REMARKS
KINROSS        CLOUDY    -1  -7  75 E8        30.27F WCI -15
6HR MIN TEMP:  -4; 6HR MAX TEMP:   3;

MACKINAC ISLAN CLOUDY    14  10  86 NE10      30.25S WCI   1
6HR MIN TEMP:   8; 6HR MAX TEMP:  14;

NEWBERRY       CLOUDY    -1  -4  85 E3        30.25S
6HR MIN TEMP:  -1; 6HR MAX TEMP:   7;

S. S. MARIE    CLOUDY     1  -6  72 E3        30.28F
6HR MIN TEMP:   1; 6HR MAX TEMP:   5;

MUNISING         N/A     11   8  88 VRB3      30.26R
6HR MIN TEMP:  11; 6HR MAX TEMP:  13;

$$
MIZ004>006-011>014-085-170700-
CENTRAL UPPER MICHIGAN

CITY           SKY/WX    TMP DP  RH WIND       PRES   REMARKS
MANISTIQUE     CLOUDY    10   4  77 NE6       30.25S WCI   0
6HR MIN TEMP:   9; 6HR MAX TEMP:  10;

ESCANABA       CLOUDY    16  12  84 NE7       30.24S WCI   6
6HR MIN TEMP:  15; 6HR MAX TEMP:  18; 6HR PCP: TRACE;

MENOMINEE      CLOUDY    28  23  81 E7        30.21R WCI  21
6HR MIN TEMP:  27; 6HR MAX TEMP:  28; 6HR PCP: TRACE;

SAWYER-GWINN   CLOUDY    11   8  85 S3        30.20R
6HR MIN TEMP:  11; 6HR MAX TEMP:  16;

$$
MIZ001>003-009>011-084-170700-
WESTERN UPPER MICHIGAN

CITY           SKY/WX    TMP DP  RH WIND       PRES   REMARKS
IRON MOUNTAIN  CLOUDY    17  12  80 VRB3      30.18R
6HR MIN TEMP:  17; 6HR MAX TEMP:  19;

HOUGHTON       CLOUDY    20  12  71 SE7       30.16S WCI  11
6HR MIN TEMP:  14; 6HR MAX TEMP:  20;

COPPER HARBOR    N/A     24  16  71 SW6       30.20R WCI  17
6HR MIN TEMP:  19; 6HR MAX TEMP:  24;

IRONWOOD       CLOUDY    21  17  84 VRB6      30.13R WCI  13
6HR MIN TEMP:  20; 6HR MAX TEMP:  21;

$$

ABBREVIATIONS USED IN REMARKS
   TC - TEMPERATURE IN CELSIUS
  WCI - WIND CHILL INDEX
   HX - HEAT INDEX
  VSB - VISIBILITY





USA.gov is the U.S. government's official web portal to all federal, state and local government web resources and services.